GW5622 Weather Reports


time (UTC)temp
C
wind
direction
speed
KPH
gust
KPH
rain 1hr
cm
rain 24hr
cm
rain mn
cm
humidity
%
barometer
mb
20260906202511 27 105 4.8 22.5 0.00 0.00 0.00 63 1021.8
20260906202012 27 150 3.2 14.5 0.00 0.00 0.00 64 1021.8
20260906201535 27 144 4.8 14.5 0.00 0.00 0.00 64 1021.7
20260906201012 27 133 4.8 14.5 0.00 0.00 0.00 65 1021.7
20260906200516 27 25 3.2 19.3 0.00 0.00 0.00 64 1021.8
20260906200025 27 130 9.7 19.3 0.00 0.00 0.00 65 1022.0
20260906195515 27 81 3.2 17.7 0.00 0.00 0.00 67 1022.0
20260906195152 27 159 4.8 16.1 0.00 0.00 0.00 65 1022.0
20260906194528 27 120 6.4 14.5 0.00 0.00 0.00 65 1022.0
20260906194003 27 139 3.2 20.9 0.00 0.00 0.00 66 1022.0
20260906193507 27 56 8.0 20.9 0.00 0.00 0.00 65 1022.1
20260906193020 27 126 4.8 17.7 0.00 0.00 0.00 65 1022.0
20260906192507 27 109 4.8 14.5 0.00 0.00 0.00 67 1022.0
20260906192012 27 94 4.8 14.5 0.00 0.00 0.00 66 1022.0
20260906191516 27 172 8.0 14.5 0.00 0.00 0.00 66 1022.1
20260906191011 27 132 1.6 9.7 0.00 0.00 0.00 67 1022.1
20260906190512 26 93 3.2 16.1 0.00 0.00 0.00 68 1022.2
20260906190027 26 152 4.8 20.9 0.00 0.00 0.00 69 1022.4
20260906185513 26 101 6.4 20.9 0.00 0.00 0.00 68 1022.3
20260906185019 26 142 3.2 17.7 0.00 0.00 0.00 68 1022.3
20260906184723 26 180 3.2 12.9 0.00 0.00 0.00 69 1022.4
20260906184015 26 170 6.4 12.9 0.00 0.00 0.00 70 1022.4
20260906183516 26 190 3.2 11.3 0.00 0.00 0.00 70 1022.5
20260906183007 26 126 1.6 11.3 0.00 0.00 0.00 73 1022.7
20260906182517 26 61 1.6 14.5 0.00 0.00 0.00 69 1022.7
20260906182008 26 161 3.2 16.1 0.00 0.00 0.00 69 1022.6
20260906181517 26 146 6.4 16.1 0.00 0.00 0.00 71 1022.6
20260906181012 25 174 3.2 11.3 0.00 0.00 0.00 72 1022.6
20260906180515 26 143 3.2 17.7 0.00 0.00 0.00 71 1022.8
20260906180027 26 173 6.4 17.7 0.00 0.00 0.00 70 1022.9
20260906175513 26 150 4.8 17.7 0.00 0.00 0.00 70 1022.9
20260906175016 26 163 3.2 12.9 0.00 0.00 0.00 73 1023.0
20260906174537 25 124 0.0 14.5 0.00 0.00 0.00 74 1023.1
20260906174053 25 152 4.8 14.5 0.00 0.00 0.00 74 1023.3
20260906174049 25 117 4.8 9.7 0.00 0.00 0.00 75 1023.6
20260906174046 25 144 1.6 14.5 0.00 0.00 0.00 75 1023.6
20260906174040 25 152 3.2 14.5 0.00 0.00 0.00 75 1023.8
20260906174038 25 194 1.6 12.9 0.00 0.00 0.00 74 1023.8
20260906174033 24 142 3.2 12.9 0.00 0.00 0.00 76 1024.2
20260906162653 23 187 1.6 12.9 0.00 0.00 0.00 78 1024.2
20260906162647 23 126 1.6 12.9 0.00 0.00 0.00 79 1024.1
20260906162641 22 136 1.6 14.5 0.00 0.00 0.00 82 1024.1
20260906162638 22 157 0.0 8.0 0.00 0.00 0.00 83 1024.0
20260906162635 21 139 1.6 8.0 0.00 0.00 0.00 83 1024.0
20260906145511 18 118 1.6 6.4 0.00 0.00 0.00 88 1024.1
20260906145012 18 166 1.6 8.0 0.00 0.00 0.00 89 1024.1
20260906144521 18 175 1.6 8.0 0.00 0.00 0.00 90 1024.1
20260906144013 18 196 1.6 8.0 0.00 0.00 0.00 90 1024.1
20260906143512 17 113 0.0 9.7 0.00 0.00 0.00 90 1024.0
20260906143036 17 114 0.0 11.3 0.00 0.00 0.00 90 1023.9
20260906142515 17 148 0.0 11.3 0.00 0.00 0.00 90 1023.9
20260906142014 17 90 1.6 8.0 0.00 0.00 0.00 91 1023.9
20260906141527 17 78 1.6 3.2 0.00 0.00 0.00 91 1023.8
20260906141015 17 70 1.6 3.2 0.00 0.00 0.00 91 1023.9
20260906140515 16 71 0.0 3.2 0.00 0.00 0.00 92 1024.0
20260906140034 16 80 0.0 3.2 0.00 0.00 0.00 92 1024.0
20260906135511 16 71 0.0 3.2 0.00 0.00 0.00 93 1024.1
20260906135009 16 124 0.0 3.2 0.00 0.00 0.00 93 1024.1
20260906134520 16 76 0.0 3.2 0.00 0.00 0.00 93 1024.1
20260906134013 16 173 0.0 4.8 0.00 0.00 0.00 93 1024.2
20260906133512 15 57 0.0 9.7 0.00 0.00 0.00 93 1024.2
20260906133027 15 178 0.0 9.7 0.00 0.00 0.00 93 1024.0
20260906132517 15 151 1.6 14.5 0.00 0.00 0.00 93 1023.9
20260906132015 15 117 3.2 14.5 0.00 0.00 0.00 93 1023.7
20260906131528 15 142 1.6 6.4 0.00 0.00 0.00 93 1023.8
20260906131005 15 142 1.6 8.0 0.00 0.00 0.00 93 1023.9
20260906130505 15 140 1.6 8.0 0.00 0.00 0.00 93 1024.1
20260906130009 15 137 0.0 4.8 0.00 0.00 0.00 93 1024.1
20260906125507 15 144 0.0 4.8 0.00 0.00 0.00 93 1024.2
20260906125008 15 147 0.0 3.2 0.00 0.00 0.00 93 1024.4
20260906124514 15 162 0.0 3.2 0.00 0.00 0.00 93 1024.4
20260906124010 15 93 0.0 6.4 0.00 0.00 0.00 94 1024.1
20260906123511 15 141 3.2 8.0 0.00 0.00 0.00 94 1023.9
20260906123037 15 123 3.2 8.0 0.00 0.00 0.00 94 1023.9
20260906122515 15 137 1.6 8.0 0.00 0.00 0.00 94 1024.1
20260906122014 15 163 0.0 4.8 0.00 0.00 0.00 94 1024.1
20260906121525 15 145 0.0 3.2 0.00 0.00 0.00 94 1023.9
20260906121017 15 145 1.6 3.2 0.00 0.00 0.00 94 1023.8
20260906120516 15 163 0.0 3.2 0.00 0.00 0.00 94 1023.8
20260906120008 15 144 0.0 4.8 0.00 0.00 0.00 94 1023.9
20260906115511 15 139 0.0 4.8 0.00 0.00 0.00 94 1023.8
20260906115008 15 140 0.0 3.2 0.00 0.00 0.00 94 1023.8
20260906114515 15 142 0.0 3.2 0.00 0.00 0.00 93 1023.7
20260906114009 15 142 0.0 3.2 0.00 0.00 0.00 93 1023.9
20260906113509 15 142 0.0 3.2 0.00 0.00 0.00 93 1023.8
20260906113021 15 142 0.0 3.2 0.00 0.00 0.00 93 1023.7
20260906112517 15 142 0.0 0.0 0.00 0.00 0.00 93 1023.6
20260906112014 15 142 0.0 3.2 0.00 0.00 0.00 93 1023.6
20260906111528 15 142 0.0 3.2 0.00 0.00 0.00 93 1023.5
20260906111014 15 142 0.0 1.6 0.00 0.00 0.00 93 1023.4
20260906110515 15 142 0.0 3.2 0.00 0.00 0.00 93 1023.2
20260906110028 15 142 0.0 3.2 0.00 0.00 0.00 93 1023.1
20260906105514 15 142 0.0 0.0 0.00 0.00 0.00 93 1023.1
20260906105016 15 142 0.0 3.2 0.00 0.00 0.00 93 1023.2
20260906104512 15 142 0.0 4.8 0.00 0.00 0.00 93 1023.2
20260906104009 15 143 0.0 4.8 0.00 0.00 0.00 93 1023.1
20260906103508 15 169 0.0 3.2 0.00 0.00 0.00 93 1023.1
20260906103019 15 176 0.0 4.8 0.00 0.00 0.00 93 1022.8
20260906102510 15 165 0.0 4.8 0.00 0.00 0.00 93 1022.7
20260906102012 15 143 0.0 3.2 0.00 0.00 0.00 93 1022.6
20260906101529 15 151 0.0 3.2 0.00 0.00 0.00 93 1022.6
20260906101015 15 173 0.0 4.8 0.00 0.00 0.00 93 1022.6
20260906100516 15 121 0.0 4.8 0.00 0.00 0.00 93 1022.7
20260906100030 15 118 0.0 3.2 0.00 0.00 0.00 93 1022.6
20260906095513 15 92 0.0 3.2 0.00 0.00 0.00 93 1022.5
20260906095016 15 140 0.0 3.2 0.00 0.00 0.00 93 1022.5
20260906094532 15 140 0.0 3.2 0.00 0.00 0.00 93 1022.5
20260906094014 15 140 0.0 3.2 0.00 0.00 0.00 93 1022.7
20260906093510 15 172 0.0 3.2 0.00 0.00 0.00 93 1022.7
20260906093020 15 157 0.0 3.2 0.00 0.00 0.00 93 1022.7
20260906092510 15 157 0.0 3.2 0.00 0.00 0.00 93 1022.7
20260906092020 15 157 0.0 1.6 0.00 0.00 0.00 93 1022.7
20260906091522 15 157 0.0 3.2 0.00 0.00 0.00 93 1022.7
20260906091013 15 157 0.0 3.2 0.00 0.00 0.00 93 1022.6
20260906090512 15 157 0.0 3.2 0.00 0.00 0.00 93 1022.7
20260906090044 15 157 0.0 3.2 0.00 0.00 0.00 93 1022.7
20260906085515 15 171 0.0 3.2 0.00 0.00 0.00 93 1022.6
20260906085013 15 165 0.0 3.2 0.00 0.00 0.00 93 1022.6
20260906084529 15 146 0.0 4.8 0.00 0.00 0.00 93 1022.6
20260906084015 15 146 0.0 4.8 0.00 0.00 0.00 93 1022.8
20260906083517 15 143 0.0 3.2 0.00 0.00 0.00 93 1022.9
20260906083036 15 145 0.0 1.6 0.00 0.00 0.00 93 1022.9
20260906082509 15 128 0.0 3.2 0.00 0.00 0.00 93 1023.0
20260906082012 15 128 0.0 3.2 0.00 0.00 0.00 93 1022.9
20260906081518 15 128 0.0 3.2 0.00 0.00 0.00 93 1022.9
20260906081013 15 128 0.0 3.2 0.00 0.00 0.00 93 1022.8
20260906080514 15 128 0.0 3.2 0.00 0.00 0.00 93 1022.7
20260906080024 16 109 0.0 3.2 0.00 0.00 0.00 93 1022.8
20260906075515 16 98 0.0 3.2 0.00 0.00 0.00 93 1022.8
20260906075014 16 98 0.0 3.2 0.00 0.00 0.00 93 1022.7
20260906074528 16 98 0.0 3.2 0.00 0.00 0.00 93 1022.8
20260906074016 16 67 0.0 3.2 0.00 0.00 0.00 93 1022.8
20260906073516 16 78 0.0 6.4 0.00 0.00 0.00 93 1022.6
20260906073031 16 63 0.0 6.4 0.00 0.00 0.00 93 1022.6
20260906072516 16 135 0.0 3.2 0.00 0.00 0.00 93 1022.7
20260906072022 16 135 0.0 3.2 0.00 0.00 0.00 93 1022.8
20260906071516 16 140 0.0 3.2 0.00 0.00 0.00 93 1022.9
20260906071010 16 140 0.0 3.2 0.00 0.00 0.00 93 1023.0
20260906070515 16 120 0.0 3.2 0.00 0.00 0.00 93 1023.1
20260906070029 16 82 0.0 3.2 0.00 0.00 0.00 92 1023.2
20260906065515 16 153 0.0 3.2 0.00 0.00 0.00 92 1023.1
20260906065013 16 143 0.0 3.2 0.00 0.00 0.00 92 1023.2
20260906064531 16 130 0.0 3.2 0.00 0.00 0.00 92 1023.2
20260906064017 16 80 0.0 3.2 0.00 0.00 0.00 92 1023.5
20260906063515 16 121 0.0 0.0 0.00 0.00 0.00 92 1023.5
20260906063043 16 121 0.0 0.0 0.00 0.00 0.00 92 1023.4
20260906062520 16 121 0.0 0.0 0.00 0.00 0.00 92 1023.6
20260906062016 16 121 0.0 0.0 0.00 0.00 0.00 92 1023.6
20260906061534 16 121 0.0 0.0 0.00 0.00 0.00 92 1023.6
20260906061019 16 121 0.0 0.0 0.00 0.00 0.00 92 1023.6
20260906060511 16 121 0.0 1.6 0.00 0.00 0.00 91 1023.6
20260906060019 16 121 0.0 1.6 0.00 0.00 0.00 91 1023.6
20260906055514 16 121 0.0 1.6 0.00 0.00 0.00 91 1023.6
20260906055012 16 121 0.0 0.0 0.00 0.00 0.00 91 1023.6
20260906054527 16 121 0.0 0.0 0.00 0.00 0.00 91 1023.5
20260906054014 16 121 0.0 0.0 0.00 0.00 0.00 90 1023.5
20260906053514 16 121 0.0 0.0 0.00 0.00 0.00 90 1023.4
20260906053026 16 121 0.0 0.0 0.00 0.00 0.00 90 1023.3
20260906052519 16 121 0.0 3.2 0.00 0.00 0.00 90 1023.3
20260906052018 16 121 0.0 3.2 0.00 0.00 0.00 90 1023.3
20260906051550 16 120 0.0 3.2 0.00 0.00 0.00 90 1023.3
20260906051016 16 120 0.0 3.2 0.00 0.00 0.00 90 1023.2
20260906050518 17 120 0.0 3.2 0.00 0.00 0.00 90 1023.2
20260906050040 17 120 0.0 3.2 0.00 0.00 0.00 89 1023.3
20260906045520 17 120 0.0 3.2 0.00 0.00 0.00 89 1023.5
20260906045014 17 120 0.0 0.0 0.00 0.00 0.00 89 1023.7
20260906044518 17 120 0.0 0.0 0.00 0.00 0.00 89 1023.7
20260906044018 17 120 0.0 0.0 0.00 0.00 0.00 89 1023.7
20260906043515 17 120 0.0 0.0 0.00 0.00 0.00 89 1023.5
20260906043028 17 120 0.0 3.2 0.00 0.00 0.00 89 1023.5
20260906042503 17 120 0.0 3.2 0.00 0.00 0.00 89 1023.4
20260906042001 17 121 0.0 3.2 0.00 0.00 0.00 89 1023.2
20260906041506 17 91 0.0 3.2 0.00 0.00 0.00 89 1023.2
20260906041007 17 91 0.0 3.2 0.00 0.00 0.00 89 1023.1
20260906040503 17 91 0.0 1.6 0.00 0.00 0.00 88 1023.0
20260906040016 18 86 0.0 3.2 0.00 0.00 0.00 88 1023.1
20260906035503 18 86 0.0 3.2 0.00 0.00 0.00 88 1023.1
20260906035004 18 158 0.0 3.2 0.00 0.00 0.00 88 1023.0
20260906034534 18 131 0.0 6.4 0.00 0.00 0.00 88 1023.0
20260906034003 18 140 0.0 6.4 0.00 0.00 0.00 88 1023.1
20260906033503 18 165 0.0 8.0 0.00 0.00 0.00 88 1023.2
20260906033003 18 181 1.6 8.0 0.00 0.00 0.00 88 1023.4
20260906032503 18 158 1.6 9.7 0.00 0.00 0.00 87 1023.5
20260906032003 18 166 0.0 9.7 0.00 0.00 0.00 87 1023.6
20260906031507 18 161 3.2 6.4 0.00 0.00 0.00 87 1023.5
20260906031005 18 169 0.0 4.8 0.00 0.00 0.00 87 1023.7
20260906030504 18 153 0.0 6.4 0.00 0.00 0.00 87 1023.5
20260906030004 18 133 0.0 9.7 0.00 0.00 0.00 87 1023.6
20260906025505 18 161 1.6 8.0 0.00 0.00 0.00 87 1023.5
20260906025003 18 133 1.6 11.3 0.00 0.00 0.00 87 1023.4
20260906024505 18 192 1.6 11.3 0.00 0.00 0.00 87 1023.4
20260906024003 18 192 3.2 11.3 0.00 0.00 0.00 87 1023.4
20260906023503 18 190 1.6 8.0 0.00 0.00 0.00 87 1023.5
20260906023002 18 138 3.2 9.7 0.00 0.00 0.00 87 1023.4
20260906022502 18 143 3.2 9.7 0.00 0.00 0.00 87 1023.4
20260906022004 18 180 1.6 8.0 0.00 0.00 0.00 87 1023.5
20260906021504 18 202 1.6 8.0 0.00 0.00 0.00 87 1023.5
20260906021004 18 79 0.0 4.8 0.00 0.00 0.00 87 1023.3
20260906020503 18 173 0.0 9.7 0.00 0.00 0.00 87 1023.2
20260906020006 18 146 1.6 11.3 0.00 0.00 0.00 87 1022.9
20260906015504 19 178 3.2 11.3 0.00 0.00 0.00 87 1022.7
20260906015004 19 180 0.0 8.0 0.00 0.00 0.00 86 1022.6
20260906014504 19 160 3.2 8.0 0.00 0.00 0.00 86 1022.4
20260906014003 19 188 3.2 8.0 0.00 0.00 0.00 86 1022.2
20260906013504 19 179 0.0 6.4 0.00 0.00 0.00 86 1022.1
20260906013003 19 134 0.0 6.4 0.00 0.00 0.00 86 1021.9
20260906012503 19 159 0.0 6.4 0.00 0.00 0.00 86 1021.7
20260906012003 19 134 0.0 8.0 0.00 0.00 0.00 86 1021.6
20260906011507 19 149 1.6 8.0 0.00 0.00 0.00 85 1021.4
20260906011007 19 194 0.0 3.2 0.00 0.00 0.00 85 1021.3
20260906010504 20 146 0.0 3.2 0.00 0.00 0.00 85 1021.3
20260906010006 20 150 0.0 4.8 0.00 0.00 0.00 85 1021.2
20260906005503 20 150 0.0 4.8 0.00 0.00 0.00 84 1021.1
20260906005003 20 153 0.0 3.2 0.00 0.00 0.00 84 1021.0
20260906004521 20 151 0.0 3.2 0.00 0.00 0.00 84 1021.0
20260906004004 20 151 0.0 3.2 0.00 0.00 0.00 84 1021.0
20260906003504 20 138 0.0 3.2 0.00 0.00 0.00 83 1021.1
20260906003006 20 128 0.0 3.2 0.00 0.00 0.00 83 1021.1
20260906002503 20 151 0.0 3.2 0.00 0.00 0.00 83 1021.3
20260906002004 20 151 0.0 3.2 0.00 0.00 0.00 82 1021.4
20260906001507 20 140 0.0 3.2 0.00 0.00 0.00 82 1021.3
20260906001005 20 148 0.0 3.2 0.00 0.00 0.00 82 1021.3
20260906000505 20 128 0.0 3.2 0.00 0.00 0.00 82 1021.3
20260906000006 20 103 0.0 4.8 0.00 0.00 0.00 81 1021.4
20260905235503 20 141 0.0 4.8 0.00 0.00 0.00 81 1021.3
20260905235004 20 109 0.0 4.8 0.00 0.00 0.00 81 1021.3
20260905234508 21 105 1.6 4.8 0.00 0.00 0.00 81 1021.2
20260905234004 21 133 1.6 4.8 0.00 0.00 0.00 80 1021.3
20260905233505 21 50 0.0 3.2 0.00 0.00 0.00 80 1021.4
20260905233007 21 192 1.6 8.0 0.00 0.00 0.00 80 1021.6
20260905232504 21 86 1.6 11.3 0.00 0.00 0.00 79 1021.4
20260905232008 21 178 1.6 12.9 0.00 0.00 0.00 80 1021.4
20260905231521 21 232 0.0 17.7 0.00 0.00 0.00 80 1021.3
20260905231005 21 157 4.8 17.7 0.00 0.00 0.00 80 1020.9
20260905230506 21 128 1.6 14.5 0.00 0.00 0.00 80 1021.0
20260905230008 21 123 1.6 14.5 0.00 0.00 0.00 81 1021.0
20260905225507 21 134 6.4 14.5 0.00 0.00 0.00 80 1021.1
20260905225007 21 147 4.8 14.5 0.00 0.00 0.00 80 1021.3
20260905224508 21 138 3.2 12.9 0.00 0.00 0.00 81 1021.4
20260905224004 21 153 1.6 11.3 0.00 0.00 0.00 81 1021.4
20260905223508 21 168 1.6 6.4 0.00 0.00 0.00 81 1021.5
20260905223008 21 121 1.6 6.4 0.00 0.00 0.00 81 1021.5
20260905222508 21 163 0.0 4.8 0.00 0.00 0.00 81 1021.5
20260905222010 21 98 0.0 4.8 0.00 0.00 0.00 80 1021.5
20260905221507 21 180 1.6 9.7 0.00 0.00 0.00 81 1021.4
20260905221008 21 121 1.6 9.7 0.00 0.00 0.00 81 1021.3
20260905220505 21 121 1.6 6.4 0.00 0.00 0.00 81 1021.4
20260905220011 21 122 3.2 6.4 0.00 0.00 0.00 81 1021.4
20260905215508 21 126 1.6 9.7 0.00 0.00 0.00 81 1021.6
20260905215007 21 167 1.6 9.7 0.00 0.00 0.00 81 1021.7
20260905214521 21 153 1.6 6.4 0.00 0.00 0.00 82 1021.6
20260905214007 20 121 1.6 8.0 0.00 0.00 0.00 82 1021.8
20260905213512 20 51 0.0 8.0 0.00 0.00 0.00 82 1021.8
20260905213011 20 121 1.6 8.0 0.00 0.00 0.00 82 1021.8
20260905212509 20 140 3.2 8.0 0.00 0.00 0.00 82 1021.9
20260905212008 20 138 1.6 11.3 0.00 0.00 0.00 81 1022.0
20260905211510 20 132 3.2 11.3 0.00 0.00 0.00 82 1022.4
20260905211007 20 139 1.6 4.8 0.00 0.00 0.00 82 1022.6
20260905210507 20 72 0.0 3.2 0.00 0.00 0.00 83 1022.7
20260905210013 20 49 0.0 3.2 0.00 0.00 0.00 83 1022.8
20260905205507 20 49 0.0 3.2 0.00 0.00 0.00 83 1022.9
20260905205005 20 140 0.0 3.2 0.00 0.00 0.00 83 1023.0
20260905204509 20 63 0.0 3.2 0.00 0.00 0.00 83 1023.2
20260905204008 20 140 1.6 3.2 0.00 0.00 0.00 83 1023.2
20260905203508 20 44 0.0 3.2 0.00 0.00 0.00 82 1023.2
20260905203012 20 59 0.0 3.2 0.00 0.00 0.00 83 1023.3